Bremerton, WA

1:54 PM PDT on September 19, 2019 (GMT -0700)
Bremerton National

Weather History for KPWT - August, 2019

Change the Weather History Date:

Sunday, August 25, 2019

  Actual Average Record
Temperature  
Mean Temperature 64 °F -  
Max Temperature 71 °F 72 °F 91 °F (2016)
Min Temperature 57 °F 50 °F 42 °F (2015)
Degree Days  
Heating Degree Days 2    
Growing Degree Days 14 (Base 50)    
Moisture  
Dew Point 53 °F    
Average Humidity 72    
Maximum Humidity 88    
Minimum Humidity 55    
Precipitation  
Precipitation 0.00 in - - ()
Sea Level Pressure  
Sea Level Pressure 30.19 in    
Wind  
Wind Speed 2 mph ()    
Max Wind Speed 7 mph    
Max Gust Speed -    
Visibility 9.9 miles    
Events      
Averages and records for this station are not official NWS values.
T = Trace of Precipitation, MM = Missing Value Source: Averaged Metar Reports

Daily Weather History Graph

Daily Weather History Graph

Search for Another Location

Airport or City:

Astronomy

Aug. 25, 2019 Rise Set
Actual Time 6:20 AM PDT 8:05 PM PDT
Civil Twilight 5:47 AM PDT 8:37 PM PDT
Nautical Twilight 5:07 AM PDT 9:17 PM PDT
Astronomical Twilight 4:24 AM PDT 10:00 PM PDT
Moon 12:46 AM PDT (8/25) 4:46 PM PDT (8/25)
Length of Visible Light 14h 49m
Length of Day
13h 44m
Waning Crescent, 28% of the Moon is Illuminated
Aug 25
Waning Crescent
Aug 30
New
Sep 5
First Quarter
Sep 13
Full
Sep 21
Last Quarter

Hourly Weather History & Observations

Time (PDT) Temp. Dew Point Humidity Pressure Visibility Wind Dir Wind Speed Gust Speed Precip Events Conditions
12:56 AM 60.1 °F 55.9 °F 86% 30.10 in 10.0 mi Calm Calm - N/A   Mostly Cloudy
1:48 AM 59.0 °F 55.4 °F 88% 30.07 in 10.0 mi NE 4.6 mph - N/A   Overcast
1:56 AM 59.0 °F 55.0 °F 87% 30.11 in 10.0 mi NE 4.6 mph - N/A   Overcast
3:56 AM 59.0 °F 53.1 °F 81% 30.12 in 10.0 mi East 3.5 mph - N/A   Overcast
4:56 AM 59.0 °F 52.0 °F 78% 30.13 in 10.0 mi NE 4.6 mph - N/A   Overcast
5:48 AM 57.2 °F 51.8 °F 82% 30.11 in 10.0 mi Calm Calm - N/A   Mostly Cloudy
5:56 AM 57.9 °F 52.0 °F 81% 30.16 in 10.0 mi Calm Calm - N/A   Overcast
6:05 AM 57.2 °F 53.6 °F 88% 30.11 in 10.0 mi Calm Calm - N/A   Overcast
6:56 AM 59.0 °F 53.1 °F 81% 30.18 in 10.0 mi Calm Calm - N/A   Overcast
7:56 AM 60.1 °F 52.0 °F 75% 30.20 in 10.0 mi East 3.5 mph - N/A   Overcast
8:45 AM 60.8 °F 51.8 °F 72% 30.17 in 10.0 mi Calm Calm - N/A   Overcast
8:56 AM 61.0 °F 52.0 °F 72% 30.21 in 10.0 mi ENE 3.5 mph - N/A   Overcast
9:53 AM 62.6 °F 51.8 °F 68% - 10.0 mi Calm Calm - N/A   Overcast
9:56 AM 62.1 °F 53.1 °F 72% 30.23 in 10.0 mi Variable 4.6 mph - N/A   Overcast
11:15 AM 66.2 °F 55.4 °F 68% 30.20 in 10.0 mi SSW 4.6 mph - N/A   Mostly Cloudy
11:56 AM 66.9 °F 55.0 °F 66% 30.24 in 8.0 mi Variable 5.8 mph - N/A   Mostly Cloudy
12:51 PM 69.8 °F 53.6 °F 56% 30.20 in 10.0 mi SSW 6.9 mph - N/A   Mostly Cloudy
12:56 PM 68.0 °F 53.1 °F 59% 30.24 in 10.0 mi South 3.5 mph - N/A   Mostly Cloudy
1:56 PM 66.9 °F 55.0 °F 66% 30.25 in 10.0 mi North - - N/A   Overcast
2:56 PM 68.0 °F 54.0 °F 61% 30.25 in 10.0 mi SE 5.8 mph - N/A   Overcast
3:56 PM 69.1 °F 54.0 °F 58% - 10.0 mi SW 5.8 mph - N/A   Overcast
4:56 PM 69.1 °F 53.1 °F 57% 30.25 in 10.0 mi Calm Calm - N/A   Overcast
5:56 PM 70.0 °F 53.1 °F 55% 30.24 in 10.0 mi Calm Calm - N/A   Overcast
6:56 PM 69.1 °F 53.1 °F 57% 30.23 in 10.0 mi NE 5.8 mph - N/A   Overcast
7:56 PM 66.9 °F 54.0 °F 63% 30.24 in 10.0 mi NNE 3.5 mph - N/A   Overcast
8:56 PM 63.0 °F 53.1 °F 70% 30.25 in 10.0 mi Calm Calm - N/A   Partly Cloudy
9:56 PM 57.0 °F 52.0 °F 83% 30.25 in 10.0 mi Calm Calm - N/A   Clear
10:56 PM 60.1 °F 53.1 °F 78% 30.25 in 10.0 mi NE 6.9 mph - N/A   Clear
11:56 PM 60.1 °F 52.0 °F 75% 30.26 in 10.0 mi NE 6.9 mph - N/A   Clear